Track BPM Size Size Produced Genre Timesort icon Time
Name Change 100 169 1.01 MB Feb 2012 Chillout 169 02:49
Space Hop 84 169 1.01 MB Sep 2013 Hip-hop 169 02:49
Brass Razoo 90 169 1.01 MB Aug 2010 Jazz 169 02:49
Rover 110 170 1.02 MB Jun 2018 Acoustic 170 02:50
Chinese New Year - Good Luck 105 170 1.02 MB Jan 2013 Seasonal 170 02:50
Endless Afternoon 60 170 1.02 MB Aug 2010 Chillout 170 02:50
The Mystery 124 170 1.02 MB Jun 2013 Dance-house 170 02:50
Restless Maneuver 100 170 1.02 MB Oct 2010 Reggae-and-roots 170 02:50
Sea Foam Green 110 170 1.02 MB May 2011 Rock 170 02:50
Cloud Cover 126 170 1.02 MB Feb 2011 Dance-house 170 02:50
Skulls 110 170 1.02 MB Feb 2011 Hip-hop 170 02:50
Oranges 100 171 1.03 MB Sep 2021 Pop 171 02:51
Condition 154 171 1.03 MB Sep 2016 Light-and-easy 171 02:51
Lo-Fi Beats 90 171 1.03 MB Feb 2021 Hip-hop 171 02:51
Equators 98 171 1.03 MB Nov 2017 World-and-relaxation 171 02:51
Kailis Bay 100 171 1.03 MB Jun 2011 Light-and-easy 171 02:51
Secrets 120 171 1.03 MB Aug 2010 Chillout 171 02:51
The Stroll 105 171 1.03 MB May 2018 Pop 171 02:51
Too True 100 171 1.03 MB Aug 2010 Chillout 171 02:51
Beau Soir On Bells 52 171 1.03 MB Aug 2012 World-and-relaxation 171 02:51
Xmas - Walking in the Winter 126 171 1.03 MB Oct 2015 Seasonal 171 02:51